MST,Max TemperatureF,Mean TemperatureF,Min TemperatureF,Max Dew PointF,MeanDew PointF,Min DewpointF,Max Humidity, Mean Humidity, Min Humidity, Max Sea Level PressureIn, Mean Sea Level PressureIn, Min Sea Level PressureIn, Max VisibilityMiles, Mean VisibilityMiles, Min VisibilityMiles, Max Wind SpeedMPH, Mean Wind SpeedMPH, Max Gust SpeedMPH,PrecipitationIn, CloudCover, Events, WindDirDegrees
2013-2-1,46,32,17,29,25,19,99,75,45,,,,,,,14,7,,0.02,,,268
2013-2-2,52,36,21,31,25,19,87,64,33,,,,,,,20,12,,0.02,,,266
2013-2-3,48,40,31,27,25,22,81,55,33,,,,,,,30,17,,0.02,,,256
2013-2-4,47,37,26,26,24,22,89,58,34,,,,,,,34,22,,0.00,,,253
2013-2-5,49,36,24,29,25,22,91,68,37,,,,,,,33,11,,0.03,,,218
2013-2-6,49,38,27,26,21,14,70,52,24,,,,,,,26,21,,0.00,,,257
2013-2-7,47,34,20,24,20,17,84,65,32,,,,,,,22,12,,0.04,,,236
2013-2-8,47,34,20,22,17,13,84,60,27,,,,,,,15,11,,0.03,,,264
2013-2-9,38,29,20,31,22,15,96,70,46,,,,,,,24,13,,0.02,,,305
2013-2-10,33,23,13,22,15,11,91,75,37,,,,,,,10,8,,0.10,,,324
2013-2-11,47,30,14,22,17,12,88,64,27,,,,,,,18,11,,0.02,,,229
2013-2-12,50,36,22,25,22,18,83,58,29,,,,,,,44,18,,0.00,,,254
2013-2-13,46,36,26,26,18,11,62,48,20,,,,,,,31,21,,0.00,,,303
2013-2-14,40,26,13,15,11,6,86,52,14,,,,,,,12,8,,0.04,,,281
2013-2-15,57,34,12,26,19,9,83,54,21,,,,,,,23,13,,0.07,,,252
2013-2-16,51,42,34,29,28,26,72,56,30,,,,,,,40,22,,0.00,,,249
2013-2-17,33,30,26,32,27,23,100,85,63,,,,,,,18,14,,0.03,,,331
2013-2-18,34,26,19,26,23,17,99,88,71,,,,,,,16,7,,0.07,,,124
2013-2-19,29,22,15,22,19,14,96,87,65,,,,,,,12,8,,0.05,,,104
2013-2-20,23,18,12,20,17,12,97,93,83,,,,,,,9,5,,0.04,,,58
2013-2-21,41,26,12,28,17,11,99,75,25,,,,,,,15,6,,0.02,,,240
2013-2-22,44,31,18,22,19,16,81,56,27,,,,,,,39,20,,0.00,,,247
2013-2-23,42,33,24,26,21,17,94,64,29,,,,,,,25,15,,0.00,,,278
2013-2-24,45,30,14,20,17,12,96,58,20,,,,,,,28,14,,0.09,,,246
2013-2-25,41,34,25,24,21,19,89,57,35,,,,,,,26,21,,0.00,,,268
2013-2-26,32,23,13,24,21,13,95,87,68,,,,,,,14,10,,0.02,,,16
2013-2-27,47,30,12,21,15,11,93,59,15,,,,,,,26,12,,0.03,,,253
2013-2-28,48,34,21,22,16,8,78,47,19,,,,,,,20,12,,0.02,,,262